Regional Weather Roundup
Issued by NWS

Home | Current Version | Previous Version | Text Only | Print | Product List | Glossary Off
Versions: 1 2 3 4 5 6 7 8 9 10 11 12 13 14 15 16 17 18 19 20 21 22 23 24 25 26 27 28 29 30 31 32 33 34 35 36 37 38 39 40 41 42 43 44 45 46 47 48 49 50

000
ASUS43 KOAX 172202
RWRNE

WEATHER ROUNDUP FOR NEBRASKA
NATIONAL WEATHER SERVICE OMAHA NE
400 PM CST WED DEC 17 2014

NOTES: SATELLITE DATA IS BEING USED TO AUGMENT CLOUD COVER ABOVE
       12000 FEET.
       "FAIR" INDICATES FEW OR NO CLOUDS BELOW 12,000 FEET WITH NO
       SIGNIFICANT WEATHER AND/OR OBSTRUCTIONS TO VISIBILITY.

  * THESE STATIONS DO NOT REPORT WEATHER SUCH AS RAIN...SNOW OR FOG.

NEZ001>004-019>022-054>056-172300-
NEBRASKA PANHANDLE

CITY           SKY/WX    TMP DP  RH WIND       PRES   REMARKS
SCOTTSBLUFF    SUNNY     22  18  85 SE9       29.95R WCI  12
ALLIANCE       CLOUDY    23  21  92 S17       29.95R WCI   9
CHADRON        SUNNY     27  21  78 S9        29.96S WCI  18
SIDNEY         CLOUDY    22  20  92 MISG      29.96S FOG
$$

NEZ057>060-069>072-079>082-172300-
SOUTHWEST NEBRASKA

CITY           SKY/WX    TMP DP  RH WIND       PRES   REMARKS
NORTH PLATTE   CLOUDY    22  20  92 SE6       30.08S FOG     WCI  14
IMPERIAL       CLOUDY    23  20  88 S7        30.04S FOG     WCI  15
MCCOOK         CLOUDY    23  22  96 E10       30.10R FOG     WCI  12
$$

NEZ005>010-023>029-035>040-094-172300-
NORTH CENTRAL NEBRASKA

CITY           SKY/WX    TMP DP  RH WIND       PRES   REMARKS
VALENTINE      CLOUDY    22  19  89 S10       30.08F WCI  11
BROKEN BOW     CLOUDY    22  20  92 SE8       30.12S WCI  12
ORD            CLOUDY    21  18  88 SE6       30.16S WCI  13
$$

NEZ041-046>049-061>064-073>077-083>087-172300-
SOUTH CENTRAL NEBRASKA

CITY           SKY/WX    TMP DP  RH WIND       PRES   REMARKS
GRAND ISLAND   CLOUDY    25  20  81 E6        30.19S WCI  18
HASTINGS       CLOUDY    26  19  74 E7        30.16S WCI  18
KEARNEY *      CLOUDY    25  19  80 E5        30.15S WCI  19
$$

NEZ011>018-030>034-042>045-172300-
NORTHEAST NEBRASKA

CITY           SKY/WX    TMP DP  RH WIND       PRES   REMARKS
NORFOLK        CLOUDY    26  15  63 E5        30.22R WCI  20
BLAIR          CLOUDY    27  17  65 NE7       30.24S WCI  20
COLUMBUS *     CLOUDY    25  12  58 E6        30.24F WCI  18
TEKAMAH        MOCLDY    26  16  65 NE3       30.27S
$$

NEZ050>053-065>068-078-088>093-172300-
SOUTHEAST NEBRASKA

CITY           SKY/WX    TMP DP  RH WIND       PRES   REMARKS
LINCOLN        CLOUDY    26  16  65 E7        30.25F WCI  18
OMAHA EPPLEY   MOCLDY    28  16  60 CALM      30.28S
FALLS CITY     CLOUDY    27  19  72 E5        30.26R WCI  22
$$

NEZ044-045-051>053-067-172300-
OMAHA AREA

CITY           SKY/WX    TMP DP  RH WIND       PRES   REMARKS
OMAHA EPPLEY   MOCLDY    28  16  60 CALM      30.28S
BLAIR          CLOUDY    27  17  65 NE7       30.24S WCI  20
OFFUTT AFB     CLOUDY    27  17  64 S2        30.26S
$$



USA.gov is the U.S. government's official web portal to all federal, state and local government web resources and services.